EW9327 Weather Reports


time (UTC)temp
F
wind
direction
speed
knots
gust
knots
rain 1hr
in
rain 24hr
in
rain mn
in
humidity
%
barometer
mb
20260507143025 58 99 0.0 0.9 0.00 0.00 0.00 84 1003.7
20260507142525 57 99 0.0 0.9 0.00 0.00 0.00 85 1003.7
20260507142025 56 99 0.0 0.9 0.00 0.00 0.00 86 1003.6
20260507141526 55 99 0.0 0.9 0.00 0.00 0.00 86 1003.6
20260507141026 55 99 0.0 0.9 0.00 0.00 0.00 86 1003.6
20260507140524 54 99 0.0 0.9 0.00 0.00 0.00 86 1003.6
20260507140025 53 99 0.0 0.9 0.00 0.00 0.00 87 1003.6
20260507135526 53 99 0.0 0.9 0.00 0.00 0.00 87 1003.5
20260507135029 52 99 0.0 1.7 0.00 0.00 0.00 88 1003.4
20260507135025 53 99 0.0 0.9 0.00 0.00 0.00 88 1003.5
20260507134025 52 99 0.0 1.7 0.00 0.00 0.00 87 1003.4
20260507133525 52 99 0.9 1.7 0.00 0.00 0.00 87 1003.2
20260507133026 52 100 0.9 2.6 0.00 0.00 0.00 87 1003.2
20260507132524 52 107 0.9 2.6 0.00 0.00 0.00 87 1003.2
20260507132024 52 90 0.9 2.6 0.00 0.00 0.00 87 1003.1
20260507131525 52 131 0.9 1.7 0.00 0.00 0.00 87 1003.2
20260507131025 51 138 0.0 1.7 0.00 0.00 0.00 87 1003.2
20260507130526 51 65 0.0 0.9 0.00 0.00 0.00 87 1003.2
20260507130025 51 65 0.0 1.7 0.00 0.00 0.00 87 1003.2
20260507125525 52 65 0.0 1.7 0.00 0.00 0.00 87 1003.1
20260507125025 51 58 0.0 0.9 0.00 0.00 0.00 87 1003.1
20260507124525 51 42 0.0 0.0 0.00 0.00 0.00 87 1003.1
20260507124026 52 42 0.0 0.9 0.00 0.00 0.00 87 1003.1
20260507123529 52 42 0.9 2.6 0.00 0.00 0.00 87 1003.0
20260507123525 52 42 0.0 1.7 0.00 0.00 0.00 87 1003.0
20260507123139 52 67 1.7 2.6 0.00 0.00 0.00 86 1003.0
20260507122024 52 87 0.9 2.6 0.00 0.00 0.00 87 1003.0
20260507121525 52 83 0.9 2.6 0.00 0.00 0.00 87 1003.1
20260507121024 52 84 0.0 2.6 0.00 0.00 0.00 87 1003.1
20260507120524 52 101 0.0 0.0 0.00 0.00 0.00 87 1003.0
20260507120025 52 101 0.0 0.0 0.00 0.00 0.00 87 1003.0
20260507115524 52 101 0.0 0.0 0.00 0.00 0.00 87 1003.0
20260507115024 52 101 0.0 0.0 0.00 0.00 0.00 87 1003.0
20260507114524 52 101 0.0 0.0 0.00 0.00 0.00 86 1003.1
20260507114025 52 101 0.0 0.0 0.00 0.00 0.00 86 1003.0
20260507113526 52 101 0.0 0.9 0.00 0.00 0.00 86 1003.0
20260507113029 52 101 0.0 0.9 0.00 0.00 0.00 86 1003.1
20260507113025 52 101 0.0 0.9 0.00 0.00 0.00 86 1003.1
20260507112045 52 101 0.0 0.0 0.00 0.00 0.00 85 1003.1
20260507112040 52 101 0.0 0.9 0.00 0.00 0.00 86 1003.2
20260507111030 53 101 0.0 0.9 0.00 0.00 0.00 85 1003.3
20260507111024 53 101 0.0 0.0 0.00 0.00 0.00 85 1003.3
20260507110524 53 101 0.0 0.0 0.00 0.00 0.00 85 1003.3
20260507110137 53 101 0.0 0.9 0.00 0.00 0.00 85 1003.4
20260507105523 53 101 0.0 0.9 0.00 0.00 0.00 85 1003.4
20260507105135 53 101 0.0 0.9 0.00 0.00 0.00 85 1003.3
20260507104027 53 100 0.0 0.9 0.00 0.00 0.00 85 1003.4
20260507104023 53 101 0.0 0.9 0.00 0.00 0.00 85 1003.4
20260507103136 53 100 0.0 0.9 0.00 0.00 0.00 85 1003.4
20260507103027 53 100 0.0 0.9 0.00 0.00 0.00 85 1003.4
20260507103023 53 100 0.0 0.9 0.00 0.00 0.00 85 1003.4
20260507101528 53 100 0.9 1.7 0.00 0.00 0.00 85 1003.5
20260507101522 53 100 0.0 0.9 0.00 0.00 0.00 85 1003.5
20260507100523 53 100 0.9 1.7 0.00 0.00 0.00 85 1003.4
20260507100022 53 100 0.9 1.7 0.00 0.00 0.00 85 1003.5
20260507095525 53 98 0.9 2.6 0.00 0.00 0.00 85 1003.5
20260507095520 53 101 0.9 2.6 0.00 0.00 0.00 85 1003.5
20260507095020 53 107 0.9 2.6 0.00 0.00 0.00 85 1003.6
20260507094019 53 98 0.0 1.7 0.00 0.00 0.00 85 1003.6
20260507093517 53 98 0.0 1.7 0.00 0.00 0.00 85 1003.6
20260507093017 53 91 0.0 1.7 0.00 0.00 0.00 84 1003.6
20260507092516 54 92 0.0 1.7 0.00 0.00 0.00 84 1003.6
20260507092016 54 92 0.0 1.7 0.00 0.00 0.00 84 1003.7
20260507091514 54 92 0.0 1.7 0.00 0.00 0.00 84 1003.7
20260507091014 54 92 0.0 1.7 0.00 0.00 0.00 84 1003.8
20260507090514 54 92 0.0 1.7 0.00 0.00 0.00 84 1003.9
20260507090018 54 92 0.0 0.9 0.00 0.00 0.00 84 1004.0
20260507090014 54 92 0.0 1.7 0.00 0.00 0.00 84 1004.0
20260507085017 54 92 0.0 1.7 0.00 0.00 0.00 84 1004.2
20260507085012 54 92 0.0 0.9 0.00 0.00 0.00 84 1004.0
20260507084014 54 92 0.0 1.7 0.00 0.00 0.00 84 1004.2
20260507083512 54 92 0.0 1.7 0.00 0.00 0.00 84 1004.2
20260507083014 54 92 0.0 0.9 0.00 0.00 0.00 84 1004.2
20260507082512 54 92 0.0 1.7 0.00 0.00 0.00 84 1004.3
20260507082012 54 92 0.0 1.7 0.00 0.00 0.00 83 1004.3
20260507081510 54 92 0.0 0.9 0.00 0.00 0.00 83 1004.4
20260507081011 54 92 0.0 0.9 0.00 0.00 0.00 83 1004.5
20260507080516 55 92 0.0 1.7 0.00 0.00 0.00 83 1004.5
20260507080511 55 92 0.0 0.9 0.00 0.00 0.00 83 1004.5
20260507075510 55 92 0.0 1.7 0.00 0.00 0.00 83 1004.4
20260507075010 55 92 0.0 1.7 0.00 0.00 0.00 83 1004.4
20260507074519 55 92 0.0 1.7 0.00 0.00 0.00 83 1004.3
20260507074011 55 104 0.0 1.7 0.00 0.00 0.00 83 1004.3
20260507073516 55 106 0.0 1.7 0.00 0.00 0.00 82 1004.3
20260507073511 55 104 0.0 1.7 0.00 0.00 0.00 82 1004.2
20260507072509 55 104 0.0 1.7 0.00 0.00 0.00 82 1004.3
20260507072009 55 104 0.0 1.7 0.00 0.00 0.00 82 1004.4
20260507071613 55 104 0.0 0.9 0.00 0.00 0.00 83 1004.4
20260507071515 55 104 0.0 0.0 0.00 0.00 0.00 83 1004.4
20260507071511 55 104 0.0 1.7 0.00 0.00 0.00 82 1004.3
20260507070010 56 104 0.0 0.0 0.00 0.00 0.00 82 1004.4
20260507065506 56 104 0.0 0.0 0.00 0.00 0.00 82 1004.5
20260507065006 56 104 0.0 0.9 0.00 0.00 0.00 81 1004.5
20260507064514 56 104 0.0 0.9 0.00 0.00 0.00 81 1004.5
20260507064506 56 104 0.0 0.9 0.00 0.00 0.00 81 1004.5
20260507064007 56 104 0.0 0.0 0.00 0.00 0.00 81 1004.5
20260507063004 56 104 0.0 1.7 0.00 0.00 0.00 81 1004.6
20260507062504 56 104 0.9 1.7 0.00 0.00 0.00 81 1004.5
20260507062004 56 104 0.9 1.7 0.00 0.00 0.00 80 1004.6
20260507061504 56 117 0.0 1.7 0.00 0.00 0.00 80 1004.5
20260507061004 56 119 0.9 1.7 0.00 0.00 0.00 80 1004.7
20260507060505 56 119 0.9 1.7 0.00 0.00 0.00 80 1004.7
20260507060004 57 234 0.0 1.7 0.00 0.00 0.00 81 1004.7
20260507055504 57 267 0.0 0.9 0.00 0.00 0.00 81 1004.7
20260507055004 57 267 0.0 0.9 0.00 0.00 0.00 81 1004.6
20260507054502 57 267 0.0 0.9 0.00 0.00 0.00 81 1004.6
20260507054003 57 267 0.0 0.9 0.00 0.00 0.00 81 1004.6
20260507053503 57 267 0.0 0.9 0.00 0.00 0.00 81 1004.4
20260507053003 57 267 0.0 0.9 0.00 0.00 0.00 81 1004.5
20260507052502 58 267 0.0 0.9 0.00 0.00 0.00 81 1004.4
20260507052003 58 267 0.0 0.9 0.00 0.00 0.00 81 1004.5
20260507051502 58 267 0.0 0.0 0.00 0.00 0.00 81 1004.5
20260507051003 58 267 0.0 0.0 0.00 0.00 0.00 80 1004.5
20260507050508 58 267 0.0 0.0 0.00 0.00 0.00 79 1004.4
20260507050502 58 267 0.0 0.0 0.00 0.00 0.00 80 1004.4
20260507050003 58 267 0.0 0.0 0.00 0.00 0.00 79 1004.4
20260507044959 59 267 0.0 0.0 0.00 0.00 0.00 79 1004.4
20260507044459 59 267 0.0 0.0 0.00 0.00 0.00 79 1004.4
20260507044005 59 267 0.0 0.9 0.00 0.00 0.00 79 1004.4
20260507044000 59 267 0.0 0.0 0.00 0.00 0.00 79 1004.4
20260507043614 60 267 0.0 0.0 0.00 0.00 0.00 78 1004.4
20260507043000 60 267 0.0 0.9 0.00 0.00 0.00 78 1004.3
20260507042000 60 267 0.0 0.0 0.00 0.00 0.00 78 1004.3
20260507041500 60 267 0.0 0.0 0.00 0.00 0.00 77 1004.3
20260507041000 61 267 0.0 0.0 0.00 0.00 0.00 77 1004.3
20260507040458 61 267 0.0 0.0 0.00 0.00 0.00 77 1004.2
20260507040003 62 267 0.0 0.0 0.00 0.00 0.00 76 1004.2
20260507035959 61 267 0.0 0.0 0.00 0.00 0.00 76 1004.3
20260507034958 62 267 0.0 0.0 0.00 0.00 0.00 76 1004.1
20260507034458 62 267 0.0 0.0 0.00 0.00 0.00 76 1004.1
20260507033958 62 267 0.0 0.9 0.00 0.00 0.00 75 1004.1
20260507033459 62 267 0.0 0.9 0.00 0.00 0.00 75 1004.0
20260507032959 62 267 0.0 0.9 0.00 0.00 0.00 75 1004.0
20260507032456 62 267 0.0 0.0 0.00 0.00 0.00 74 1004.0
20260507031959 62 267 0.0 0.0 0.00 0.00 0.00 74 1003.9
20260507031955 63 267 0.0 0.0 0.00 0.00 0.00 73 1003.9
20260507030954 63 267 0.0 0.9 0.00 0.00 0.00 73 1003.8
20260507030455 63 267 0.0 0.9 0.00 0.00 0.00 73 1003.7
20260507025954 63 267 0.0 0.9 0.00 0.00 0.00 73 1003.6
20260507025454 63 266 0.0 0.9 0.00 0.00 0.00 72 1003.6
20260507024955 64 266 0.0 1.7 0.00 0.00 0.00 71 1003.6
20260507024454 64 266 0.0 1.7 0.00 0.00 0.00 71 1003.4
20260507023953 64 267 0.0 0.9 0.00 0.00 0.00 70 1003.4
20260507023454 64 267 0.0 0.9 0.00 0.00 0.00 70 1003.4
20260507022953 65 267 0.0 0.9 0.00 0.00 0.00 69 1003.4
20260507022452 65 267 0.0 1.7 0.00 0.00 0.00 69 1003.4
20260507021955 65 265 0.0 2.6 0.00 0.00 0.00 68 1003.4
20260507021952 65 267 0.0 1.7 0.00 0.00 0.00 69 1003.3
20260507020953 65 242 0.9 2.6 0.00 0.00 0.00 68 1003.3
20260507020454 65 266 0.9 2.6 0.00 0.00 0.00 68 1003.3
20260507015950 66 233 0.9 2.6 0.00 0.00 0.00 67 1003.1
20260507015451 66 296 0.9 2.6 0.00 0.00 0.00 68 1003.2
20260507014950 66 293 0.9 1.7 0.00 0.00 0.00 68 1003.2
20260507014448 67 279 0.9 2.6 0.00 0.00 0.00 67 1003.1
20260507013949 67 212 0.9 3.5 0.00 0.00 0.00 65 1003.1
20260507013447 67 235 0.9 3.5 0.00 0.00 0.00 65 1003.1
20260507012945 67 314 0.9 3.5 0.00 0.00 0.00 67 1003.1
20260507012445 67 251 0.9 3.5 0.00 0.00 0.00 66 1003.1
20260507011944 68 229 0.9 3.5 0.00 0.00 0.00 66 1003.1
20260507011449 69 271 0.9 2.6 0.00 0.00 0.00 66 1003.0
20260507011444 68 274 0.9 2.6 0.00 0.00 0.00 66 1003.0
20260507010441 69 237 1.7 6.1 0.00 0.00 0.00 66 1003.0
20260507005942 69 309 0.9 6.1 0.00 0.00 0.00 65 1003.1
20260507005440 69 279 1.7 3.5 0.00 0.00 0.00 65 1003.0
20260507004942 69 262 1.7 5.2 0.00 0.00 0.00 65 1003.0
20260507004441 70 230 1.7 5.2 0.00 0.00 0.00 65 1002.9
20260507003946 70 240 1.7 7.0 0.00 0.00 0.00 65 1003.0
20260507003942 70 297 1.7 6.1 0.00 0.00 0.00 65 1002.9
20260507002938 71 285 1.7 7.0 0.00 0.00 0.00 64 1002.9
20260507002438 71 259 1.7 2.6 0.00 0.00 0.00 65 1002.9
20260507001937 71 245 1.7 3.5 0.00 0.00 0.00 64 1002.8
20260507001437 71 242 1.7 6.1 0.00 0.00 0.00 62 1002.8
20260507000937 71 319 1.7 7.0 0.00 0.00 0.00 61 1002.7
20260507000438 72 229 1.7 7.0 0.00 0.00 0.00 59 1002.7
20260506235937 72 202 1.7 6.1 0.00 0.00 0.00 60 1002.7
20260506235439 72 260 1.7 3.5 0.00 0.00 0.00 61 1002.7
20260506234939 71 323 1.7 6.1 0.00 0.00 0.00 61 1002.7
20260506234437 71 310 1.7 6.1 0.00 0.00 0.00 61 1002.7
20260506233938 71 262 1.7 3.5 0.00 0.00 0.00 61 1002.7
20260506233438 71 216 1.7 5.2 0.00 0.00 0.00 61 1002.7
20260506232937 71 204 1.7 5.2 0.00 0.00 0.00 59 1002.7
20260506232437 71 223 1.7 4.3 0.00 0.00 0.00 58 1002.7
20260506231938 71 193 1.7 5.2 0.00 0.00 0.00 58 1002.7
20260506231437 71 200 1.7 5.2 0.00 0.00 0.00 58 1002.6
20260506230938 71 225 1.7 5.2 0.00 0.00 0.00 58 1002.8
20260506230437 70 198 1.7 5.2 0.00 0.00 0.00 59 1002.9
20260506225938 70 292 1.7 3.5 0.00 0.00 0.00 59 1003.0
20260506225438 69 227 1.7 3.5 0.00 0.00 0.00 60 1002.9
20260506224937 69 203 1.7 3.5 0.00 0.00 0.00 60 1003.0
20260506224438 69 240 1.7 3.5 0.00 0.00 0.00 62 1003.1
20260506223938 69 252 1.7 4.3 0.00 0.00 0.00 63 1003.2
20260506223438 69 204 1.7 6.1 0.00 0.00 0.00 65 1003.3
20260506222938 68 248 1.7 6.1 0.00 0.00 0.00 66 1003.4
20260506222444 68 246 1.7 6.1 0.00 0.00 0.00 66 1003.4
20260506222440 68 233 1.7 6.1 0.00 0.00 0.00 65 1003.4
20260506221438 68 235 1.7 3.5 0.00 0.00 0.00 67 1003.5
20260506220937 68 223 1.7 4.3 0.00 0.00 0.00 65 1003.5
20260506220437 68 292 1.7 4.3 0.00 0.00 0.00 63 1003.7
20260506215936 69 252 1.7 5.2 0.00 0.00 0.00 62 1003.8
20260506215435 69 271 1.7 5.2 0.00 0.00 0.00 61 1003.7
20260506214936 69 294 1.7 5.2 0.00 0.00 0.00 59 1003.7
20260506214433 68 207 1.7 7.0 0.00 0.00 0.00 64 1003.8
20260506213933 68 217 2.6 7.0 0.00 0.00 0.00 63 1003.8
20260506213431 68 206 2.6 6.1 0.00 0.00 0.00 65 1004.0
20260506212933 68 207 1.7 6.1 0.00 0.00 0.00 64 1004.0
20260506212429 68 309 1.7 6.1 0.00 0.00 0.00 67 1004.1
20260506211929 68 217 1.7 4.3 0.00 0.00 0.00 67 1004.1
20260506211431 68 234 1.7 5.2 0.00 0.00 0.00 68 1004.1
20260506210930 68 204 1.7 5.2 0.00 0.00 0.00 67 1004.2
20260506210433 68 232 1.7 7.0 0.00 0.00 0.00 67 1004.3
20260506210429 68 211 1.7 7.0 0.00 0.00 0.00 69 1004.2
20260506205427 68 296 1.7 7.0 0.00 0.00 0.00 69 1004.3
20260506204927 68 228 1.7 7.0 0.00 0.00 0.00 68 1004.3
20260506204427 68 317 1.7 4.3 0.00 0.00 0.00 66 1004.3
20260506203927 68 242 1.7 5.2 0.00 0.00 0.00 68 1004.3
20260506203433 68 287 1.7 5.2 0.00 0.00 0.00 68 1004.4
20260506203428 68 223 1.7 5.2 0.00 0.00 0.00 66 1004.3
20260506202427 68 215 1.7 5.2 0.00 0.00 0.00 67 1004.3
20260506201931 67 293 2.6 7.0 0.00 0.00 0.00 67 1004.4
20260506201927 67 297 1.7 5.2 0.00 0.00 0.00 69 1004.4
20260506200931 68 227 1.7 5.2 0.00 0.00 0.00 67 1004.5
20260506200925 67 296 1.7 7.0 0.00 0.00 0.00 67 1004.5
20260506195925 68 231 1.7 4.3 0.00 0.00 0.00 66 1004.6
20260506195426 68 218 1.7 4.3 0.00 0.00 0.00 67 1004.7
20260506194928 68 226 1.7 5.2 0.00 0.00 0.00 68 1004.8
20260506194425 68 210 1.7 5.2 0.00 0.00 0.00 68 1004.8
20260506193925 67 219 1.7 6.1 0.00 0.00 0.00 69 1004.9
20260506193425 68 241 1.7 6.1 0.00 0.00 0.00 68 1004.9
20260506192925 68 256 1.7 5.2 0.00 0.00 0.00 67 1005.0
20260506192427 68 207 1.7 4.3 0.00 0.00 0.00 68 1005.1
20260506191925 68 230 1.7 3.5 0.00 0.00 0.00 68 1005.1
20260506191426 68 222 1.7 3.5 0.00 0.00 0.00 68 1005.1
20260506190925 67 192 1.7 3.5 0.00 0.00 0.00 68 1005.2
20260506190427 67 254 1.7 5.2 0.00 0.00 0.00 70 1005.2
20260506185925 67 200 1.7 5.2 0.00 0.00 0.00 70 1005.2
20260506185432 67 272 1.7 4.3 0.00 0.00 0.00 68 1005.4
20260506185425 67 221 1.7 4.3 0.00 0.00 0.00 69 1005.2
20260506184925 67 234 1.7 4.3 0.00 0.00 0.00 69 1005.3
20260506184424 67 312 1.7 4.3 0.00 0.00 0.00 70 1005.4
20260506183423 67 267 1.7 4.3 0.00 0.00 0.00 70 1005.5
20260506182925 67 240 1.7 4.3 0.00 0.00 0.00 69 1005.5
20260506182423 67 210 1.7 4.3 0.00 0.00 0.00 70 1005.5
20260506181923 66 190 1.7 4.3 0.00 0.00 0.00 70 1005.5
20260506181424 67 234 1.7 6.1 0.00 0.00 0.00 68 1005.5
20260506180923 67 154 1.7 6.1 0.00 0.00 0.00 70 1005.5
20260506180422 67 213 1.7 3.5 0.00 0.00 0.00 70 1005.5
20260506175924 66 113 1.7 4.3 0.00 0.00 0.00 69 1005.6
20260506175428 67 247 0.9 3.5 0.00 0.00 0.00 70 1005.4
20260506175422 66 207 1.7 4.3 0.00 0.00 0.00 70 1005.5
20260506174922 66 328 1.7 3.5 0.00 0.00 0.00 70 1005.5
20260506173922 66 234 0.9 3.5 0.00 0.00 0.00 70 1005.5
20260506173424 66 231 0.9 4.3 0.00 0.00 0.00 69 1005.4
20260506172923 66 226 1.7 4.3 0.00 0.00 0.00 70 1005.4
20260506172421 66 255 0.9 3.5 0.00 0.00 0.00 70 1005.5
20260506171921 66 213 0.9 2.6 0.00 0.00 0.00 71 1005.5
20260506171421 66 222 0.9 2.6 0.00 0.00 0.00 70 1005.6
20260506170921 66 229 0.9 3.5 0.00 0.00 0.00 69 1005.6
20260506170420 66 238 0.9 3.5 0.00 0.00 0.00 69 1005.6
20260506165918 66 300 0.9 3.5 0.00 0.00 0.00 70 1005.6
20260506165420 66 234 0.9 3.5 0.00 0.00 0.00 70 1005.7
20260506164920 66 249 1.7 3.5 0.00 0.00 0.00 71 1005.7
20260506164419 66 254 1.7 4.3 0.00 0.00 0.00 71 1005.7
20260506163919 66 216 0.9 4.3 0.00 0.00 0.00 70 1005.7
20260506163419 66 156 0.0 1.7 0.00 0.00 0.00 71 1005.7
20260506162930 66 260 0.9 1.7 0.00 0.00 0.00 71 1005.7
20260506162418 65 297 0.9 2.6 0.00 0.00 0.00 70 1005.7
20260506161919 65 273 0.9 2.6 0.00 0.00 0.00 70 1005.7
20260506161419 65 294 0.9 2.6 0.00 0.00 0.00 71 1005.7
20260506160920 65 228 0.9 2.6 0.00 0.00 0.00 71 1005.7
20260506160419 65 205 0.9 2.6 0.00 0.00 0.00 72 1005.6
20260506155924 64 126 0.9 2.6 0.00 0.00 0.00 73 1005.6
20260506155919 64 249 0.9 2.6 0.00 0.00 0.00 71 1005.6
20260506154919 63 137 0.9 2.6 0.00 0.00 0.00 73 1005.6
20260506154419 63 99 0.9 2.6 0.00 0.00 0.00 75 1005.6
20260506153922 62 120 0.9 2.6 0.00 0.00 0.00 75 1005.6
20260506153424 61 60 0.9 3.5 0.00 0.00 0.00 76 1005.6
20260506153419 62 93 0.9 3.5 0.00 0.00 0.00 76 1005.6
20260506152417 60 134 0.9 3.5 0.00 0.00 0.00 75 1005.6
20260506151917 60 134 0.9 3.5 0.00 0.00 0.00 75 1005.7
20260506151419 59 175 0.9 2.6 0.00 0.00 0.00 76 1005.7
20260506150918 58 161 0.9 2.6 0.00 0.00 0.00 78 1005.7
20260506150421 57 134 2.6 3.5 0.00 0.00 0.00 78 1005.7
20260506150417 58 134 1.7 3.5 0.00 0.00 0.00 78 1005.8
20260506150031 56 144 1.7 4.3 0.00 0.00 0.00 79 1005.7
20260506144915 56 142 2.6 4.3 0.00 0.00 0.00 79 1005.6
20260506144420 55 146 1.7 3.5 0.00 0.00 0.00 80 1005.7
20260506144415 55 143 1.7 4.3 0.00 0.00 0.00 79 1005.7